FW8288 Weather Reports


Display with metric or nautical units.
time (UTC)temp
F
wind
direction
speed
MPH
gust
MPH
rain 1hr
in
rain 24hr
in
rain mn
in
humidity
%
barometer
mb
20260509153115 78 0 0.0 0.0 0.00 0.03 0.00 88 1011.4
20260509151600 78 0 0.0 2.0 0.00 0.03 0.00 88 1011.7
20260509150058 77 0 0.0 0.0 0.00 0.03 0.00 90 1011.4
20260509144557 76 0 0.0 0.0 0.00 0.04 0.00 91 1011.2
20260509143100 76 0 0.0 0.0 0.00 0.04 0.00 92 1011.0
20260509141557 76 0 0.0 0.0 0.00 0.04 0.00 93 1010.7
20260509134557 75 0 0.0 0.0 0.00 0.04 0.00 94 1010.9
20260509133057 75 0 0.0 0.0 0.00 0.04 0.00 94 1011.4
20260509131601 75 0 0.0 0.0 0.00 0.04 0.00 95 1011.7
20260509130107 75 0 0.0 0.0 0.00 0.04 0.00 95 1012.0
20260509124600 75 0 0.0 0.0 0.00 0.04 0.00 95 1011.3
20260509123100 74 0 0.0 0.0 0.00 0.04 0.00 95 1011.7
20260509121628 74 0 0.0 0.0 0.00 0.04 0.00 95 1011.4
20260509114608 74 0 0.0 0.0 0.00 0.04 0.00 95 1011.3
20260509113101 74 0 0.0 0.0 0.00 0.04 0.00 95 1011.2
20260509111600 74 0 0.0 0.0 0.00 0.04 0.00 95 1010.9
20260509110109 74 0 0.0 0.0 0.00 0.04 0.00 95 1011.0
20260509104600 74 0 0.0 0.0 0.00 0.04 0.00 94 1010.7
20260509103103 74 0 0.0 0.0 0.00 0.04 0.00 94 1010.7
20260509101618 74 0 0.0 0.0 0.00 0.04 0.00 94 1010.9
20260509100057 74 0 0.0 0.0 0.00 0.04 0.00 94 1010.8
20260509094609 74 0 0.0 0.0 0.00 0.04 0.00 94 1010.3
20260509093100 75 0 0.0 0.0 0.00 0.04 0.00 94 1010.2
20260509091607 75 0 0.0 0.0 0.00 0.04 0.00 94 1010.4
20260509090105 75 0 0.0 0.0 0.00 0.04 0.00 94 1010.8
20260509084602 75 0 0.0 0.0 0.00 0.04 0.00 94 1010.7
20260509083103 75 0 0.0 0.0 0.00 0.04 0.00 94 1010.6
20260509081559 75 0 0.0 0.0 0.00 0.04 0.00 94 1010.6
20260509080059 75 0 0.0 1.0 0.00 0.04 0.00 94 1010.4
20260509074559 75 165 0.0 2.0 0.00 0.04 0.00 94 1010.5
20260509073057 75 0 0.0 2.0 0.00 0.04 0.00 94 1010.3
20260509071556 75 0 0.0 0.0 0.00 0.04 0.00 94 1010.7
20260509070057 74 0 0.0 0.0 0.00 0.04 0.00 94 1011.0
20260509064604 74 0 0.0 0.0 0.00 0.04 0.00 93 1011.1
20260509063100 74 0 0.0 0.0 0.00 0.04 0.00 93 1011.1
20260509061558 74 0 0.0 0.0 0.00 0.04 0.00 93 1011.0
20260509060110 74 0 0.0 0.0 0.00 0.04 0.00 93 1011.1
20260509054606 74 0 0.0 0.0 0.00 0.04 0.00 93 1011.3
20260509053134 74 0 0.0 2.0 0.00 0.04 0.00 93 1011.2
20260509051559 74 0 0.0 3.0 0.00 0.04 0.00 92 1011.2
20260509050100 74 0 1.0 2.0 0.00 0.04 0.00 92 1011.3
20260509044659 74 0 1.0 3.0 0.00 0.04 0.04 92 1011.2
20260509043139 74 0 0.0 3.0 0.00 0.04 0.04 92 1011.4
20260509041558 74 0 0.0 2.0 0.00 0.04 0.04 92 1011.4
20260509040104 74 0 1.0 2.0 0.00 0.04 0.04 92 1011.2
20260509034557 74 0 1.0 2.0 0.00 0.04 0.04 92 1011.2
20260509033058 74 165 2.0 4.0 0.00 0.04 0.04 92 1010.9
20260509031602 74 165 2.0 4.0 0.00 0.04 0.04 92 1010.7
20260509030113 74 165 2.0 5.0 0.00 0.04 0.04 91 1010.9
20260509024601 74 0 1.0 4.0 0.00 0.04 0.04 91 1011.0
20260509023100 74 165 1.0 5.0 0.00 0.04 0.04 90 1010.6
20260509021602 74 0 0.0 1.0 0.00 0.04 0.04 90 1010.6
20260509020107 74 165 1.0 2.0 0.00 0.04 0.04 90 1010.0
20260509014559 74 165 0.0 3.0 0.00 0.04 0.04 90 1010.1
20260509013100 74 165 1.0 2.0 0.00 0.04 0.04 91 1010.0
20260509011601 74 0 0.0 0.0 0.00 0.04 0.04 91 1010.0
20260509010059 74 0 0.0 2.0 0.00 0.04 0.04 91 1010.2
20260509004611 74 165 1.0 3.0 0.00 0.04 0.04 90 1009.8
20260509003058 74 165 1.0 3.0 0.00 0.04 0.04 90 1010.0
20260509001559 74 165 1.0 2.0 0.00 0.04 0.04 90 1010.0
20260509000106 74 165 1.0 3.0 0.00 0.04 0.04 89 1010.1
20260508234558 74 165 1.0 4.0 0.00 0.04 0.04 89 1009.9
20260508233058 74 165 2.0 5.0 0.00 0.04 0.04 89 1009.9
20260508231559 74 165 1.0 3.0 0.00 0.04 0.04 89 1010.2
20260508230059 74 165 0.0 3.0 0.00 0.04 0.04 89 1010.4
20260508224640 74 0 0.0 4.0 0.00 0.04 0.04 89 1010.3
20260508223057 73 165 2.0 3.0 0.00 0.04 0.04 90 1010.2
20260508221559 73 165 2.0 3.0 0.00 0.04 0.04 89 1010.2
20260508220059 74 165 1.0 3.0 0.00 0.04 0.04 88 1010.4
20260508214601 74 165 2.0 4.0 0.00 0.04 0.04 88 1010.2
20260508213059 74 165 2.0 4.0 0.00 0.04 0.04 88 1010.4
20260508211602 74 165 2.0 3.0 0.00 0.04 0.04 88 1010.7
20260508210059 74 165 2.0 5.0 0.00 0.04 0.04 89 1010.8
20260508204559 73 165 1.0 5.0 0.00 0.04 0.04 90 1010.8
20260508203109 73 165 1.0 6.0 0.00 0.04 0.04 90 1010.9
20260508201605 73 165 1.0 4.0 0.00 0.04 0.04 93 1011.1
20260508200101 72 165 1.0 2.0 0.00 0.04 0.04 93 1011.2
20260508194556 71 165 1.0 4.0 0.00 0.04 0.04 93 1011.6
20260508193103 70 165 1.0 2.0 0.00 0.04 0.04 93 1011.8
20260508191557 70 0 0.0 3.0 0.00 0.04 0.04 93 1012.2
20260508184601 69 165 0.0 1.0 0.01 0.04 0.04 93 1012.0
20260508183100 69 165 1.0 5.0 0.02 0.04 0.04 93 1012.2
20260508181600 69 165 1.0 3.0 0.03 0.04 0.04 93 1012.2
20260508174602 68 165 0.0 0.0 0.02 0.03 0.03 92 1013.1
20260508173101 68 0 0.0 4.0 0.01 0.02 0.02 92 1013.2
20260508171601 68 165 1.0 4.0 0.00 0.01 0.01 91 1013.1
20260508170101 68 165 1.0 4.0 0.00 0.01 0.01 90 1013.3
20260508164600 69 165 1.0 4.0 0.00 0.01 0.01 90 1013.3
20260508163059 68 165 3.0 8.0 0.00 0.01 0.01 90 1013.3
20260508161602 68 165 3.0 5.0 0.00 0.01 0.01 90 1013.6
20260508160101 68 165 1.0 4.0 0.00 0.01 0.01 89 1014.0
20260508154613 68 165 2.0 4.0 0.00 0.01 0.01 88 1014.0